Regional Weather Roundup
Issued by NWS Wakefield, VA

Home | Current Version | Previous Version | Text Only | Print | Product List | Glossary Off
Versions: 1 2 3 4 5 6 7 8 9 10 11 12 13 14 15 16 17 18 19 20 21 22 23 24 25 26 27

000
ASUS41 KAKQ 231115
RWRAKQ

REGIONAL WEATHER ROUNDUP
NATIONAL WEATHER SERVICE WAKEFIELD VA
700 AM EDT SUN APR 23 2017

Note: "fair" indicates few or no clouds below 12,000 feet with no
significant weather and/or obstructions to visibility. * = Denotes
station may not report precipitation (e.g., rain,snow,etc.),
thunder or fog.

VAZ042-051-052>054-056-231200-
NORTHERN VIRGINIA

CITY           SKY/WX    TMP DP  RH WIND       PRES   REMARKS
WASH NATIONAL  CLOUDY    49  40  71 N10       30.11R
DULLES         PTCLDY    45  39  79 N7        30.11R
FORT BELVOIR   CLOUDY    47  41  77 CALM      30.11R
QUANTICO       MOCLDY    50  44  80 N9        30.12R
FREDERICKSBRG* CLOUDY    50  50 100 N6        30.09R
STAFFORD*      CLOUDY    47  46  94 N5        30.14R
WARRENTON      MOCLDY    47  40  77 CALM      30.11R
CULPEPER*      PTCLDY    46  43  88 N5        30.12R
MANASSAS*        N/A     45  42  89 N6        30.12R
LEESBURG*      CLEAR     45  41  87 N5        30.12R
WINCHESTER     CLEAR     39  36  87 CALM      30.11R
FRONT ROYAL*   CLOUDY    41  41 100 NW3       30.11R VSB 3/4
LURAY*         CLOUDY    45  45 100 N6        30.10R FOG
$$

VAZ048-049-060>072-079>083-231200-
CENTRAL AND SOUTH CENTRAL VIRGINIA

CITY           SKY/WX    TMP DP  RH WIND       PRES   REMARKS
RICHMOND       CLOUDY    51  50  96 NE7       30.06S
CHESTERFIELD*  PTSUNNY  N/A N/A N/A N6        30.07R
PETERSBURG*    LGT RAIN  51  49  93 N5        30.06R
HANOVER        MOCLDY    50  49  96 N5        30.08R FOG
TAPPAHANNOCK*  MOCLDY    52  50  92 NE6       30.07R
QUINTON*       CLOUDY    51  51 100 N9        30.06S FOG
CHARLOTTSVILLE CLOUDY    50  43  77 NE12      30.07R
GORDONSVILLE*  CLOUDY    48  44  84 NE8       30.08R
ORANGE*        CLOUDY    46  43  87 CALM      30.08R
LOUISA*        CLOUDY    52  48  87 NE6       30.06S
BUMPASS*       CLOUDY    48  48  97 NE6       30.07S
FARMVILLE*     CLOUDY    50  50  99 N5        30.06R
CREWE*         CLOUDY    49  49 100 N3        30.07R
FORT PICKETT*  CLOUDY   N/A N/A N/A N8        30.05R
CHASE CITY*    CLOUDY    49  47  95 NE6       30.04S
CLARKSVILLE*   CLOUDY    50  50 100 NE5       30.04R
SOUTH HILL*    CLOUDY    50  50 100 N5        30.10R
LAWRENCEVILLE* CLOUDY    51  50  95 N5        30.05R
EMPORIA*       LGT SNOW  52  50  93 N6        30.05R
$$

VAZ088>098-231200-
SOUTHEAST VIRGINIA

CITY           SKY/WX    TMP DP  RH WIND       PRES   REMARKS
NORFOLK        CLOUDY    56  48  74 NE15G23   30.02S
VIRGINIA BEACH CLOUDY    53  48  83 NE13      30.01S
NORFOLK NAVAL  CLOUDY    56  50  80 NE10      30.04R
WEST POINT*    CLOUDY    52  51  97 NE3       30.07R
SALUDA*        CLOUDY    53  50  92 N7        30.07R
NEWPORT NEWS   LGT RAIN  53  49  86 NE9       30.03R
LANGLEY AFB    LGT RAIN  54  48  82 NE23      30.03R
FORT EUSTIS    LGT RAIN  54  50  87 NE8       30.01R
WILLIAMSBURG*  CLOUDY    54  54 100 CALM      30.05R
HR EXEC AP*    CLOUDY    54  46  76 NE5       30.01R
FRANKLIN*      DRIZZLE   53  51  94 N5        30.03R
US460-WAKEFLD  LGT RAIN  53  52  96 VRB6      30.05R
$$

VAZ020-022-025-037-045-231200-
WEST CENTRAL AND SOUTHWEST VIRGINIA

CITY           SKY/WX    TMP DP  RH WIND       PRES   REMARKS
STAUNTON*      CLOUDY    46  45  96 NE3       30.09S
WAYNESBORO*    CLOUDY    46  46 100 CALM      30.07R
HOT SPRINGS VA CLOUDY    39  36  87 E8        30.03S
LYNCHBURG      CLOUDY    49  44  83 NE9       30.07R
DANVILLE       LGT RAIN  49  48  97 NE10      30.03S
SOUTH BOSTON*  CLOUDY    49  48  95 NE3       30.05R
MARTINSVILLE   DRIZZLE   47  45  90 NE6       30.05S
ROANOKE        CLOUDY    49  46  90 NE7       30.07R
BLACKSBURG     CLOUDY    46  44  93 E3        30.06R
DUBLIN*        CLOUDY    46  43  88 E13       30.03R
MARION*        MIX PCPN  47  46  95 E12G18    30.01R
HILLSVILLE*    CLOUDY    44  44 100 CALM      29.99R FOG
RICHLANDS*     CLOUDY    48  47  95 E3        29.94R
WISE*          FOG       46  46 100 CALM      29.92R VSB<1/4
ABINGDON*      CLOUDY    55  52  92 E18       29.91R
$$

MDZ021>025-VAZ099-100-231200-
SOUTHERN MARYLAND AND THE DELMARVA PENINSULA

CITY           SKY/WX    TMP DP  RH WIND       PRES   REMARKS
PATUXENT RIVER CLOUDY    50  44  80 NE12      30.09R
BAY BRIDGE APT CLOUDY    48  39  71 NE8       30.10R
LEONARDTOWN    CLOUDY    50  41  71 N3        30.11R
DOVER          CLOUDY    47  47  99 N9        30.08R
GEORGETOWN     MOCLDY    49  42  77 MISG      30.07R
EASTON         NOT AVBL
CAMBRIDGE      CLOUDY    48  41  76 N7        30.10R
SALISBURY      CLOUDY    48  44  86 N5        30.07R
OCEAN CITY     PTCLDY    51  42  71 NE9G18    30.06R
WALLOPS ISLAND LGT RAIN  50  48  93 N7        30.07R
ACCOMACK*      RAIN      52  49  91 NE6       30.05R
$$

NCZ012>017-030>032-231200-
NORTH CENTRAL AND EASTERN NORTH CAROLINA

CITY           SKY/WX    TMP DP  RH WIND       PRES   REMARKS
ROANOKE RAPIDS DRIZZLE   54  52  94 N3        30.03R
RALEIGH        CLOUDY    55  53  93 NE7       30.01R
ELIZABETH CITY LGT RAIN  54  53  97 NE15      30.03R
AHOSKIE*       LGT RAIN  54  53  96 N6        30.02R
EDENTON*       NOT AVBL
CURRITUCK*     LGT RAIN  54  54 100 NE12      30.02S
KILL DEVIL HLS RAIN      54  54 100 N3G21     30.00R
MANTEO         CLOUDY    54  52  94 NE14G23   30.01R
CAPE HATTERAS  CLOUDY    58  56  93 NE12G23   29.98R FOG
TARBORO*       NOT AVBL
GOLDSBORO      CLOUDY    56  56 100 NE10      29.96R
WASHINGTON     CLOUDY    54  53  95 NE9       30.00R
GREENVILLE     CLOUDY    55  54  94 E7        30.01S
NEW BERN       CLOUDY    57  56  96 NE10      29.99R
WILMINGTON     LGT RAIN  60  59  96 NE13      29.93R
$$

VAZ048-231200-
ELSEWHERE

CITY           SKY/WX    TMP DP  RH WIND       PRES   REMARKS
HARRISBURG PA  PTCLDY    42  37  82 N3        30.12R
BALTIMORE      CLOUDY    46  38  73 VRB7      30.10R
ANNAPOLIS      CLOUDY    51  41  68 N8        30.09R
ANDREWS AFB    CLOUDY    45  40  82 N8        30.09R
PHILADELPHIA   CLOUDY    46  36  68 N7        30.11R
HENDERSON NC   DRIZZLE   48  47  95 N5        30.04R
GREENSBORO     CLOUDY    48  48 100 NE14G23   29.98S
ROCKY MOUNT    LGT RAIN  55  55 100 NE10      30.00R
$$

VAZ100-231200-
MARINE

STATION/POSITION TIME  TEMP    WIND        PRES    WAVE   SWELL
                       AIR SEA DIR/SP/G            HT/PER HT/PER
                 (UTC) (F)     (DEG/KT/KT) (MB)    (FT/S) (FT/S)
CAPE MAY NJ      1048   47 56   30/  4/  8 1017.8R
LEWES DE         1048   51 54   30/ 16/ 19 1018.0R
15NM E FENWICK I 1050   51 52   20/ 16/ 19 1017.6R   5/11   3/11
OCEAN-CITY-INLET 1048   51 55   30/  9/ 14 1018.2R
WACHAPREAGUE VA  1042   52 62  360/  6/  9 1017.2R
THOMAS POINT MD  1100   50 58   30/ 16/ 17   N/A
GOOSES REEF MD   1100   51 54   20/ 14/ 16 1019.3    2/ 3
COVE POINT MD    1042   51      30/ 12/ 15 1019.4R
SOLOMONS ISLAND  1042   51 61   30/  7/  8   N/A
BISHOPS HEAD MD  1048   51 61   20/  9/ 13 1018.5R
PINEY POINT MD   1048           70/  6/  8   N/A
POTOMAC MD       1100   52 61   30/ 12/ 14 1017.9    1/ 2
CAMBRIDGE MD     1042   50 64   20/ 11/ 14 1017.4R
LEWISETTA VA     1042   53 65   30/  7/ 12 1018.3R
RAPPAHANNOCK LGT 1048           30/ 18/ 20 1017.7R
STINGRAY PT      1050   55      60/ 16/ 19 1017.1R
YORK RVR RNG VA  1042   56      60/ 17/ 19 1016.3R
YORKTOWN VA      1042   56 65   50/ 13/ 15 1016.5R
JAMESTOWN VA     1100   53 69  360/  6/ 10   N/A     0
DOMINION TERM VA 1042   55      50/  7/ 12 1016.6R
KIPTOPEKE VA     1048      60   40/  6/  9   N/A
CHES BAY BRIDGE  1042   56 62   60/ 20/ 23 1016.1F
CAPE HENRY VA    1042   55      40/ 19/ 22   N/A
WILLOUBY STN VA  1042   56      40/ 17/ 19 1017.5R
S CRANEY ISL VA  1042   56      50/ 12/ 13 1016.1F
CAPE HENRY BUOY  1042      57                N/A     5/ 6   2/12
1ST LANDING BUOY 1100   56 61              1016.8    3/ 3
CAPE CHARLES BUO 1051      57                N/A     4/13   2/13
64NM E OF VA BCH 1050   53 55  360/ 17/ 19 1016.3R   6/11   3/11
DUCK PIER NC     1042   54 62   20/ 24/ 26 1015.3R
44100 DUCK FRF   1005      57                N/A     6/ 6   2/12
44056 DUCK FRF   1030      61                N/A     6/12   2/12
OREGON INLET NC  1042   54 64   10/ 13/ 19 1015.3R
HATTERAS NC      1042   59 70   30/ 13/ 18 1014.4R
DIAMOND SHLS NC  1050   62 75   10/ 19/ 23 1014.0R   5/ 5   2/12
CAPE LOOKOUT NC  1100   62      30/ 13/ 15 1014.0R
$$




USA.gov is the U.S. government's official web portal to all federal, state and local government web resources and services.